User: anonymous   Login
Location: Unspecified
(0.0000°N, 0.0000°E)
Time: 01:55:38
(UTC+00:00)
Language:

STARLINK-6348 - Orbit

View from above orbital plane
View from above orbital plane
View from above satellite
View from above satellite

Ground track
Ground track

The orbit is defined by the following mean orbital elements,

1 57360U          26145.52260144 +.00000000 +00000-0 +37374-4 0 00004
2 57360  43.0031 167.4495 0001721 268.6189  91.4466 15.27577606    07
Epoch (UTC): 25 May 2026 12:32:32
Eccentricity: 0.0001721
inclination: 43.0031°
perigee height: 482 km
apogee height: 484 km
right ascension of ascending node: 167.4495°
argument of perigee: 268.6189°
revolutions per day: 15.27577606
mean anomaly at epoch: 91.4466°

The dashed part of the orbit path shows where the satellite is in the earth's shadow,  

DLR